When you browse on this site, cookies collect data to enhance your experience and personalize the content and advertising you see.
Visit our Privacy Policy to learn more. By continuing to use the site, you agree to this use of cookies and data.
  • In France
  • List of Countries
  • For 7 days
  • Water Temperature
  • Weather Map
  • Weather Widgets
  • user-avatar
    Login

    Hourly Weather Duchan

    Today, 26 May, Tuesday

    Time Temperature Precipitation Wind Pressure Humidity
    00:00 +32°C° 0 mm 2 mps 752 mmHg 39%
    01:00 +32°C° 0 mm 2 mps 752 mmHg 41%
    02:00 +31°C° 0 mm 2 mps 752 mmHg 43%
    03:00 +30°C° 0 mm 3 mps 752 mmHg 45%
    04:00 +31°C° 0 mm 3 mps 752 mmHg 45%
    05:00 +31°C° 0 mm 2 mps 753 mmHg 45%
    06:00 +31°C° 0 mm 2 mps 753 mmHg 46%
    07:00 +34°C° 0 mm 3 mps 753 mmHg 41%
    08:00 +36°C° 0 mm 4 mps 754 mmHg 37%
    09:00 +37°C° 0 mm 5 mps 754 mmHg 33%
    10:00 +39°C° 0 mm 5 mps 754 mmHg 32%
    11:00 +40°C° 0 mm 6 mps 754 mmHg 31%
    12:00 +40°C° 0 mm 6 mps 753 mmHg 31%
    13:00 +40°C° 0 mm 6 mps 753 mmHg 30%
    14:00 +40°C° 0 mm 6 mps 753 mmHg 29%
    15:00 +40°C° 0 mm 6 mps 752 mmHg 28%
    16:00 +38°C° 0 mm 6 mps 752 mmHg 32%
    17:00 +36°C° 0 mm 6 mps 753 mmHg 36%
    18:00 +35°C° 0 mm 5 mps 753 mmHg 39%
    19:00 +34°C° 0 mm 5 mps 753 mmHg 44%
    20:00 +33°C° 0 mm 5 mps 753 mmHg 49%
    21:00 +32°C° 0 mm 4 mps 753 mmHg 54%
    22:00 +32°C° 0 mm 4 mps 753 mmHg 50%
    23:00 +31°C° 0 mm 3 mps 753 mmHg 47%

    Tomorrow, 27 May, Wednesday

    Time Temperature Precipitation Wind Pressure Humidity
    00:00 +30°C° 0 mm 3 mps 753 mmHg 44%
    01:00 +30°C° 0 mm 3 mps 752 mmHg 42%
    02:00 +30°C° 0 mm 3 mps 752 mmHg 41%
    03:00 +30°C° 0 mm 3 mps 752 mmHg 40%
    04:00 +32°C° 0 mm 4 mps 752 mmHg 40%
    05:00 +32°C° 0 mm 4 mps 752 mmHg 40%
    06:00 +32°C° 0 mm 4 mps 753 mmHg 39%
    07:00 +34°C° 0 mm 5 mps 753 mmHg 36%
    08:00 +36°C° 0 mm 5 mps 753 mmHg 32%
    09:00 +39°C° 0 mm 6 mps 753 mmHg 29%
    10:00 +40°C° 0 mm 6 mps 753 mmHg 26%
    11:00 +42°C° 0 mm 6 mps 753 mmHg 23%
    12:00 +44°C° 0 mm 6 mps 752 mmHg 20%
    13:00 +42°C° 0 mm 6 mps 752 mmHg 22%
    14:00 +42°C° 0 mm 6 mps 751 mmHg 23%
    15:00 +41°C° 0 mm 7 mps 751 mmHg 25%
    16:00 +39°C° 0 mm 6 mps 751 mmHg 31%
    17:00 +38°C° 0 mm 6 mps 751 mmHg 38%
    18:00 +35°C° 0 mm 5 mps 751 mmHg 44%
    19:00 +34°C° 0 mm 5 mps 751 mmHg 49%
    20:00 +33°C° 0 mm 4 mps 752 mmHg 54%
    21:00 +33°C° 0 mm 4 mps 752 mmHg 58%
    22:00 +32°C° 0 mm 4 mps 752 mmHg 57%
    23:00 +32°C° 0 mm 4 mps 751 mmHg 56%

    Day after tomorrow, 28 May, Thursday

    Time Temperature Precipitation Wind Pressure Humidity
    00:00 +31°C° 0 mm 3 mps 751 mmHg 55%
    01:00 +32°C° 0 mm 4 mps 751 mmHg 53%
    02:00 +32°C° 0 mm 4 mps 750 mmHg 51%
    03:00 +32°C° 0 mm 4 mps 750 mmHg 49%
    04:00 +32°C° 0 mm 4 mps 750 mmHg 48%
    05:00 +33°C° 0 mm 4 mps 751 mmHg 47%
    06:00 +33°C° 0 mm 5 mps 751 mmHg 46%
    07:00 +35°C° 0 mm 4 mps 751 mmHg 39%
    08:00 +38°C° 0 mm 4 mps 751 mmHg 33%
    09:00 +41°C° 0 mm 4 mps 751 mmHg 26%
    10:00 +42°C° 0 mm 4 mps 751 mmHg 24%
    11:00 +44°C° 0 mm 4 mps 750 mmHg 22%
    12:00 +45°C° 0 mm 4 mps 750 mmHg 20%
    13:00 +45°C° 0 mm 5 mps 750 mmHg 20%
    14:00 +45°C° 0 mm 6 mps 749 mmHg 21%
    15:00 +45°C° 0 mm 7 mps 749 mmHg 22%
    16:00 +42°C° 0 mm 6 mps 749 mmHg 25%
    17:00 +41°C° 0 mm 6 mps 749 mmHg 29%
    18:00 +40°C° 0 mm 5 mps 749 mmHg 33%
    19:00 +37°C° 0 mm 4 mps 749 mmHg 37%
    20:00 +36°C° 0 mm 3 mps 750 mmHg 41%
    21:00 +34°C° 0 mm 2 mps 750 mmHg 45%
    22:00 +34°C° 0 mm 2 mps 750 mmHg 44%
    23:00 +34°C° 0 mm 2 mps 749 mmHg 44%

    29 May, Friday

    Time Temperature Precipitation Wind Pressure Humidity
    00:00 +34°C° 0 mm 2 mps 749 mmHg 43%
    01:00 +32°C° 0 mm 2 mps 749 mmHg 44%
    02:00 +31°C° 0 mm 1 mps 749 mmHg 45%
    03:00 +30°C° 0 mm 1 mps 748 mmHg 46%
    04:00 +31°C° 0 mm 2 mps 749 mmHg 44%
    05:00 +32°C° 0 mm 2 mps 749 mmHg 42%
    06:00 +32°C° 0 mm 2 mps 749 mmHg 40%
    07:00 +36°C° 0 mm 2 mps 750 mmHg 35%
    08:00 +37°C° 0 mm 1 mps 750 mmHg 29%
    09:00 +40°C° 0 mm 1 mps 750 mmHg 23%
    10:00 +42°C° 0 mm 1 mps 750 mmHg 20%
    11:00 +43°C° 0 mm 2 mps 749 mmHg 16%
    12:00 +46°C° 0 mm 2 mps 749 mmHg 12%
    13:00 +46°C° 0 mm 3 mps 749 mmHg 12%
    14:00 +47°C° 0 mm 3 mps 748 mmHg 11%
    15:00 +48°C° 0 mm 4 mps 748 mmHg 10%
    16:00 +45°C° 0 mm 4 mps 748 mmHg 12%
    17:00 +43°C° 0 mm 4 mps 748 mmHg 14%
    18:00 +42°C° 0 mm 4 mps 748 mmHg 17%
    19:00 +39°C° 0 mm 3 mps 748 mmHg 21%
    20:00 +37°C° 0 mm 2 mps 749 mmHg 26%
    21:00 +34°C° 0 mm 1 mps 749 mmHg 30%
    22:00 +34°C° 0 mm 1 mps 749 mmHg 30%
    23:00 +33°C° 0 mm 1 mps 749 mmHg 29%

    30 May, Saturday

    Time Temperature Precipitation Wind Pressure Humidity
    00:00 +33°C° 0 mm 1 mps 748 mmHg 28%
    01:00 +32°C° 0 mm 1 mps 748 mmHg 28%
    02:00 +32°C° 0 mm 1 mps 748 mmHg 28%
    03:00 +29°C° 0 mm 0 mps 748 mmHg 29%
    04:00 +32°C° 0 mm 1 mps 748 mmHg 29%
    05:00 +34°C° 0 mm 2 mps 749 mmHg 30%
    06:00 +35°C° 0 mm 3 mps 749 mmHg 30%
    07:00 +37°C° 0 mm 3 mps 750 mmHg 25%
    08:00 +39°C° 0 mm 2 mps 750 mmHg 19%
    09:00 +42°C° 0 mm 2 mps 750 mmHg 14%
    10:00 +44°C° 0 mm 3 mps 750 mmHg 13%
    11:00 +45°C° 0 mm 4 mps 750 mmHg 11%
    12:00 +47°C° 0 mm 5 mps 750 mmHg 10%
    13:00 +47°C° 0 mm 5 mps 749 mmHg 12%
    14:00 +47°C° 0 mm 5 mps 749 mmHg 13%
    15:00 +47°C° 0 mm 6 mps 749 mmHg 15%
    16:00 +43°C° 0 mm 5 mps 749 mmHg 24%
    17:00 +40°C° 0 mm 5 mps 749 mmHg 32%
    18:00 +37°C° 0 mm 4 mps 749 mmHg 41%
    19:00 +36°C° 0 mm 4 mps 749 mmHg 44%
    20:00 +35°C° 0 mm 3 mps 750 mmHg 48%
    21:00 +34°C° 0 mm 2 mps 751 mmHg 51%
    22:00 +32°C° 0 mm 2 mps 750 mmHg 50%
    23:00 +33°C° 0 mm 3 mps 750 mmHg 49%

    31 May, Sunday

    Time Temperature Precipitation Wind Pressure Humidity
    00:00 +33°C° 0 mm 3 mps 750 mmHg 47%
    01:00 +33°C° 0 mm 3 mps 750 mmHg 46%
    02:00 +33°C° 0 mm 4 mps 750 mmHg 45%
    03:00 +33°C° 0 mm 4 mps 750 mmHg 43%
    04:00 +33°C° 0 mm 5 mps 750 mmHg 47%
    05:00 +34°C° 0 mm 6 mps 750 mmHg 50%
    06:00 +34°C° 0 mm 7 mps 751 mmHg 53%
    07:00 +36°C° 0 mm 7 mps 751 mmHg 45%
    08:00 +39°C° 0 mm 7 mps 751 mmHg 36%
    09:00 +41°C° 0 mm 7 mps 751 mmHg 27%
    10:00 +42°C° 0 mm 6 mps 751 mmHg 24%
    11:00 +45°C° 0 mm 6 mps 751 mmHg 20%
    12:00 +46°C° 0 mm 6 mps 751 mmHg 17%
    13:00 +45°C° 0 mm 6 mps 750 mmHg 18%
    14:00 +44°C° 0 mm 6 mps 750 mmHg 19%
    15:00 +44°C° 0 mm 6 mps 750 mmHg 20%
    16:00 +41°C° 0 mm 6 mps 750 mmHg 24%
    17:00 +39°C° 0 mm 5 mps 750 mmHg 28%
    18:00 +37°C° 0 mm 5 mps 750 mmHg 32%
    19:00 +36°C° 0 mm 5 mps 750 mmHg 36%
    20:00 +35°C° 0 mm 4 mps 750 mmHg 40%
    21:00 +34°C° 0 mm 4 mps 751 mmHg 44%
    22:00 +34°C° 0 mm 3 mps 750 mmHg 43%
    23:00 +34°C° 0 mm 3 mps 750 mmHg 41%
    Show more